"","ID","Lat","Lon","Year","Miss Tmax","Miss Tmin","Miss Prcp","Avg Temp","Avg Tmax","Avg Tmin","ToT Prcp","Max Tmax","Min Tmax","Max Tmin","Min Tmin","Warm Days","Warm Nights","Cold Days","Cold Nights","Max 1-day P","Max 5-day P","Wet Days"
"1893-12-31","USW00023155",35.4344,-119.0542,1893,31,31,36,60.22,74.34,46.09,4.03,108,41,79,22,4.93,2.74,9.04,17.26,0.74,0.89,3.37
"1894-12-31","USW00023155",35.4344,-119.0542,1894,365,365,334,NA,NA,NA,1.26,-Inf,Inf,-Inf,Inf,0,0,0,0,0.65,1.12,1.23
"1895-12-31","USW00023155",35.4344,-119.0542,1895,306,306,329,52.67,64.75,40.59,3.03,79,44,56,27,0,0,3.29,3.84,0.96,1.56,2.68
"1896-12-31","USW00023155",35.4344,-119.0542,1896,366,366,366,NA,NA,NA,0,-Inf,Inf,-Inf,Inf,0,0,0,0,-Inf,0,0
"1897-12-31","USW00023155",35.4344,-119.0542,1897,365,365,365,NA,NA,NA,0,-Inf,Inf,-Inf,Inf,0,0,0,0,-Inf,0,0
"1898-12-31","USW00023155",35.4344,-119.0542,1898,365,365,365,NA,NA,NA,0,-Inf,Inf,-Inf,Inf,0,0,0,0,-Inf,0,0
"1899-12-31","USW00023155",35.4344,-119.0542,1899,193,192,212,64.43,81.35,47.51,3.02,112,38,69,21,9.32,0.55,5.48,5.75,0.65,0.86,2.29
"1900-12-31","USW00023155",35.4344,-119.0542,1900,179,179,92,58.87,73.7,44.03,4.29,104,45,68,20,4.38,1.37,5.48,9.32,0.84,0.9,3.61
"1901-12-31","USW00023155",35.4344,-119.0542,1901,204,204,149,64.11,82.53,45.68,2.01,112,50,78,19,6.85,3.29,1.37,10.14,0.81,1.62,1.9
"1902-12-31","USW00023155",35.4344,-119.0542,1902,26,1,30,62.05,78.18,45.91,5.71,111,42,74,22,12.6,2.19,9.04,20,0.6,1.04,5.17
"1903-12-31","USW00023155",35.4344,-119.0542,1903,2,1,59,61.85,79.46,44.24,3.08,109,40,70,20,13.15,1.37,12.33,25.48,0.46,0.91,2.62
"1904-12-31","USW00023155",35.4344,-119.0542,1904,0,1,91,64.48,80.14,48.82,4.96,111,40,75,20,15.89,3.84,5.48,20,0.88,0.93,4.25
"1905-12-31","USW00023155",35.4344,-119.0542,1905,23,23,31,65.14,83.55,46.73,8.59,114,47,71,13,16.99,1.1,5.21,15.62,1.5,1.63,8.14
"1906-12-31","USW00023155",35.4344,-119.0542,1906,1,33,52,64.22,80.71,47.72,6.9,113,45,80,26,17.81,4.11,7.95,12.6,1,1.1,5.79
"1907-12-31","USW00023155",35.4344,-119.0542,1907,30,60,60,63.68,82.29,45.07,3.94,110,49,85,21,15.62,4.66,2.19,19.45,0.56,1.3,3.57
"1908-12-31","USW00023155",35.4344,-119.0542,1908,23,23,62,64.14,83.66,44.63,2.1,118,35,76,14,17.81,14.79,5.48,28.77,0.6,1.1,1.6
"1909-12-31","USW00023155",35.4344,-119.0542,1909,57,57,183,69.97,82.73,57.2,2.58,108,45,85,30,17.26,23.84,9.04,4.66,0.53,1.48,2.58
"1910-12-31","USW00023155",35.4344,-119.0542,1910,0,0,118,67.61,80.07,55.15,3.3,110,43,88,30,18.36,16.44,10.96,5.48,0.73,1.26,3.08
"1911-12-31","USW00023155",35.4344,-119.0542,1911,32,32,120,64.62,76.35,52.9,4.53,105,47,80,30,4.93,10.96,11.78,7.95,1.27,1.27,4.39
"1912-12-31","USW00023155",35.4344,-119.0542,1912,29,7,120,64.26,78.28,50.24,1.67,106,48,80,23,5.21,6.85,5.21,15.34,0.7,0.7,1.52
"1913-12-31","USW00023155",35.4344,-119.0542,1913,30,30,90,64.7,83.46,45.94,3.53,116,40,74,14,12.05,1.92,9.32,15.34,0.61,0.61,3.29
"1914-12-31","USW00023155",35.4344,-119.0542,1914,2,1,0,64.55,81.13,47.98,6.5,108,44,70,24,14.52,1.37,4.66,10.68,0.84,1.82,6.07
"1915-12-31","USW00023155",35.4344,-119.0542,1915,1,1,92,63.98,79.95,48.01,9.04,115,46,75,25,10.96,3.56,5.75,15.62,0.97,1.43,8.3
"1916-12-31","USW00023155",35.4344,-119.0542,1916,2,3,153,63.16,79.35,46.96,7.96,110,42,75,24,9.04,2.74,6.58,16.99,1.1,1.43,7.16
"1917-12-31","USW00023155",35.4344,-119.0542,1917,0,0,284,64.06,81.43,46.7,3.02,110,48,85,20,20.82,4.11,4.66,22.74,0.9,1.33,2.71
"1918-12-31","USW00023155",35.4344,-119.0542,1918,2,1,263,63.88,79.8,47.95,6.62,107,32,75,25,13.15,5.48,8.22,18.9,0.76,1.33,6.15
"1919-12-31","USW00023155",35.4344,-119.0542,1919,0,0,283,62.05,75.74,48.37,3.79,110,37,77,22,12.6,8.49,22.47,19.73,0.7,0.7,3.19
"1920-12-31","USW00023155",35.4344,-119.0542,1920,0,0,273,62.76,77.49,48.04,6.5,113,43,74,24,9.86,4.38,6.03,13.97,0.71,1.22,5.89
"1921-12-31","USW00023155",35.4344,-119.0542,1921,0,0,174,64.49,79.96,49.02,8.47,111,47,75,25,12.6,5.21,7.12,11.51,0.85,1.46,7.51
"1922-12-31","USW00023155",35.4344,-119.0542,1922,0,0,287,63.09,77.87,48.32,8.24,111,40,76,21,15.07,6.58,15.07,19.73,0.9,1.15,7.55
"1923-12-31","USW00023155",35.4344,-119.0542,1923,0,0,304,62.79,78.12,47.46,4.6,110,45,72,24,8.22,4.66,10.14,16.16,0.97,1.22,3.91
"1924-12-31","USW00023155",35.4344,-119.0542,1924,0,0,146,64.46,79.68,49.24,3.99,110,44,74,21,12.33,5.48,8.22,13.7,0.87,1.21,3.07
"1925-12-31","USW00023155",35.4344,-119.0542,1925,0,0,58,64.89,79.06,50.73,5.06,115,43,84,26,10.41,9.59,7.67,8.49,0.67,0.83,3.97
"1926-12-31","USW00023155",35.4344,-119.0542,1926,2,2,0,66.25,80.54,51.96,5.73,109,38,77,25,14.25,9.86,10.14,11.51,0.8,1.7,4.91
"1927-12-31","USW00023155",35.4344,-119.0542,1927,0,0,0,63.85,78.07,49.64,6.79,108,48,76,27,11.51,6.85,8.49,9.59,1,1.54,5.8
"1928-12-31","USW00023155",35.4344,-119.0542,1928,0,0,0,64.91,79.97,49.86,4.63,108,36,72,23,16.71,7.95,10.14,13.7,0.95,1.7,4.42
"1929-12-31","USW00023155",35.4344,-119.0542,1929,0,0,0,64.08,79.44,48.73,2.74,110,39,81,19,17.26,9.86,10.68,20.27,0.52,0.63,1.72
"1930-12-31","USW00023155",35.4344,-119.0542,1930,0,0,0,64.44,79.17,49.72,6.15,114,38,77,19,16.16,7.4,9.86,12.05,0.92,1.87,5.17
"1931-12-31","USW00023155",35.4344,-119.0542,1931,0,0,0,66.42,80.69,52.16,8.28,117,45,84,22,16.44,15.34,10.14,10.96,1.02,1.29,7.78
"1932-12-31","USW00023155",35.4344,-119.0542,1932,0,0,0,64.34,78.88,49.81,7.51,111,35,77,25,15.34,9.59,15.62,12.88,0.62,1.57,6.49
"1933-12-31","USW00023155",35.4344,-119.0542,1933,1,1,0,64.33,79.11,49.54,6.08,117,38,80,23,16.44,11.78,13.7,17.53,1.57,2.44,4.82
"1934-12-31","USW00023155",35.4344,-119.0542,1934,0,0,0,66.62,80.74,52.51,4.63,112,39,80,28,15.89,11.51,9.86,6.85,0.68,1.14,4.11
"1935-12-31","USW00023155",35.4344,-119.0542,1935,0,0,0,64.1,78.56,49.63,6.08,112,45,78,27,15.34,9.86,10.14,14.25,0.81,0.94,4.86
"1936-12-31","USW00023155",35.4344,-119.0542,1936,0,0,0,65.5,79.28,51.72,7.34,111,48,78,28,14.25,13.97,6.58,13.15,1.02,1.76,6.71
"1937-12-31","USW00023155",35.4344,-119.0542,1937,5,1,0,63.9,77.92,49.88,6.94,109,39,77,19,13.7,13.7,12.88,16.16,0.88,1.27,6.25
"1938-12-31","USW00023155",35.4344,-119.0542,1938,0,0,0,65.1,78.87,51.32,11.13,113,40,79,23,16.71,12.6,10.41,9.86,1.68,3.96,10.2
"1939-12-31","USW00023155",35.4344,-119.0542,1939,0,0,0,65.51,80.55,50.47,6.07,110,46,76,26,18.36,11.51,9.32,11.78,0.99,1.28,5.32
"1940-12-31","USW00023155",35.4344,-119.0542,1940,0,0,0,66.47,80.06,52.88,9.55,111,40,76,27,13.15,10.14,4.66,6.58,1.51,1.51,8.78
"1941-12-31","USW00023155",35.4344,-119.0542,1941,1,0,0,64.81,78.05,51.57,10.94,111,50,79,28,9.32,9.04,5.21,4.38,0.77,1.31,9.63
"1942-12-31","USW00023155",35.4344,-119.0542,1942,0,0,0,64.33,78.22,50.44,4.26,112,45,81,26,13.42,10.96,8.77,10.96,0.76,1.15,3.68
"1943-12-31","USW00023155",35.4344,-119.0542,1943,0,0,0,64.87,79.01,50.72,9.38,110,49,79,23,12.05,5.48,7.12,8.49,1,2.39,8.36
"1944-12-31","USW00023155",35.4344,-119.0542,1944,0,1,0,64.67,78.14,51.2,6.08,109,41,75,29,10.68,9.59,9.32,8.77,1.03,1.24,4.51
"1945-12-31","USW00023155",35.4344,-119.0542,1945,1,1,0,65.37,78.38,52.36,8.33,110,41,79,26,16.16,16.71,11.23,7.67,1.22,1.67,7.05
"1946-12-31","USW00023155",35.4344,-119.0542,1946,0,0,0,64.25,77.69,50.81,5.95,109,43,78,28,11.51,12.05,11.78,11.51,0.82,0.88,5.28
"1947-12-31","USW00023155",35.4344,-119.0542,1947,0,0,0,64.75,78.3,51.19,2.68,108,36,73,25,11.78,8.77,12.05,14.25,0.6,0.66,2.17
"1948-12-31","USW00023155",35.4344,-119.0542,1948,0,0,0,63.88,77.71,50.04,4.32,110,42,74,22,10.14,10.14,8.49,11.51,0.6,0.73,3.52
"1949-12-31","USW00023155",35.4344,-119.0542,1949,0,0,0,64.39,77.69,51.09,4.51,109,37,76,21,8.22,13.15,15.07,15.89,0.58,0.75,3.5
"1950-12-31","USW00023155",35.4344,-119.0542,1950,0,0,0,66.22,79.32,53.11,5.55,115,42,80,23,13.42,14.52,11.78,6.3,0.59,0.71,4.57
"1951-12-31","USW00023155",35.4344,-119.0542,1951,0,0,0,65.27,78.95,51.59,5.71,107,41,78,26,9.32,12.05,11.23,9.59,0.5,0.87,5.01
"1952-12-31","USW00023155",35.4344,-119.0542,1952,0,0,0,64.63,77.74,51.53,9.64,105,47,76,27,9.04,12.33,15.07,8.49,0.68,1.5,8.54
"1953-12-31","USW00023155",35.4344,-119.0542,1953,0,0,0,63.81,77.27,50.36,4.17,107,44,75,28,8.49,11.23,8.77,10.41,0.65,0.81,3.52
"1954-12-31","USW00023155",35.4344,-119.0542,1954,0,0,0,64.41,77.57,51.25,4.48,109,39,77,26,8.22,9.86,12.88,8.77,1.02,1.24,3.89
"1955-12-31","USW00023155",35.4344,-119.0542,1955,0,0,0,64.3,77.49,51.11,4.58,112,42,77,26,10.68,12.33,14.52,9.59,0.55,0.83,3.9
"1956-12-31","USW00023155",35.4344,-119.0542,1956,0,0,0,64.5,77.87,51.13,4.4,109,36,79,26,7.67,7.67,9.59,10.14,1.2,1.46,3.67
"1957-12-31","USW00023155",35.4344,-119.0542,1957,0,0,0,64.84,77.25,52.44,5.56,112,38,77,27,10.96,13.15,12.33,9.04,0.64,0.86,4.51
"1958-12-31","USW00023155",35.4344,-119.0542,1958,0,0,0,66.12,78.48,53.75,8.61,110,47,79,30,6.3,18.63,5.21,5.48,0.87,1.49,7.6
"1959-12-31","USW00023155",35.4344,-119.0542,1959,0,0,0,66.46,79.34,53.57,1.87,109,49,79,28,10.14,17.53,7.12,5.75,0.35,0.66,1.51
"1960-12-31","USW00023155",35.4344,-119.0542,1960,0,0,0,65.45,77.97,52.93,7.03,110,40,83,25,11.23,18.9,10.96,7.4,1.39,2.31,6.43
"1961-12-31","USW00023155",35.4344,-119.0542,1961,0,0,0,64.48,76.72,52.25,1.98,113,37,84,25,11.51,17.53,12.05,8.77,0.45,0.45,1.51
"1962-12-31","USW00023155",35.4344,-119.0542,1962,0,0,0,63.87,76.27,51.47,5.66,105,38,77,21,5.75,12.6,15.34,11.78,1.08,2.44,4.96
"1963-12-31","USW00023155",35.4344,-119.0542,1963,0,0,0,63.32,74.59,52.05,6.88,107,37,75,20,4.11,13.97,14.79,11.78,1.08,1.39,6.1
"1964-12-31","USW00023155",35.4344,-119.0542,1964,0,0,0,64.39,77.14,51.64,4.01,111,42,78,26,8.77,13.97,14.52,10.14,0.39,0.67,2.69
"1965-12-31","USW00023155",35.4344,-119.0542,1965,0,0,0,63.84,75.17,52.51,6.8,105,38,80,25,3.29,13.42,19.45,7.95,0.93,1.18,5.62
"1966-12-31","USW00023155",35.4344,-119.0542,1966,0,0,0,65.32,77.32,53.31,4.62,108,43,80,29,9.59,15.07,17.26,7.95,0.7,1.58,4.31
"1967-12-31","USW00023155",35.4344,-119.0542,1967,0,0,0,65.15,76.56,53.74,7.05,111,41,80,25,13.15,26.58,15.89,8.49,0.82,1.18,6.06
"1968-12-31","USW00023155",35.4344,-119.0542,1968,0,0,0,66.26,78.08,54.44,5.14,108,42,82,25,11.51,19.73,11.23,6.03,0.66,0.8,4.43
"1969-12-31","USW00023155",35.4344,-119.0542,1969,0,0,0,66.62,78.51,54.73,7,109,43,83,28,12.6,23.29,12.6,2.74,0.68,1.57,6.31
"1970-12-31","USW00023155",35.4344,-119.0542,1970,0,0,0,67.5,80.1,54.91,5.18,110,45,81,26,15.89,22.47,7.12,2.74,0.99,1.5,4.49
"1971-12-31","USW00023155",35.4344,-119.0542,1971,0,0,0,64.69,76.45,52.94,5.77,109,44,82,26,12.88,22.47,16.44,8.77,0.78,1.75,5.02
"1972-12-31","USW00023155",35.4344,-119.0542,1972,0,0,0,65.1,76.25,53.95,4.25,113,36,83,24,9.32,22.19,16.99,9.59,1.09,1.11,3.8
"1973-12-31","USW00023155",35.4344,-119.0542,1973,0,0,0,66.95,79.07,54.83,6.82,111,42,81,27,13.7,21.92,11.23,3.84,0.87,1.18,5.99
"1974-12-31","USW00023155",35.4344,-119.0542,1974,0,0,0,67.56,79.28,55.85,7.04,109,43,84,29,12.6,28.77,11.51,3.56,1.19,1.22,6.41
"1975-12-31","USW00023155",35.4344,-119.0542,1975,0,0,0,65.94,77.77,54.1,4.1,110,45,83,26,11.23,28.22,12.33,7.95,0.54,1.2,2.8
"1976-12-31","USW00023155",35.4344,-119.0542,1976,0,0,0,66.97,78.66,55.28,5.07,114,45,81,27,9.86,21.37,5.21,5.75,0.58,1.39,4.11
"1977-12-31","USW00023155",35.4344,-119.0542,1977,0,0,0,67.87,79.43,56.3,5.52,111,42,84,32,11.23,24.66,7.67,2.19,1.03,1.24,4.97
"1978-12-31","USW00023155",35.4344,-119.0542,1978,0,0,0,67.91,79.23,56.59,10.31,111,44,86,25,12.33,23.01,8.49,3.56,2.29,4.15,9.24
"1979-12-31","USW00023155",35.4344,-119.0542,1979,0,0,0,67.81,79.86,55.76,6.19,112,48,82,26,13.42,23.84,4.11,3.01,0.46,0.92,5.48
"1980-12-31","USW00023155",35.4344,-119.0542,1980,0,0,0,66.02,78.01,54.03,6.01,112,45,83,30,10.14,17.81,8.77,3.56,0.6,1.46,5.09
"1981-12-31","USW00023155",35.4344,-119.0542,1981,0,0,0,67.8,79.34,56.25,6.07,112,46,80,31,16.71,27.12,10.96,2.47,0.7,0.81,5.26
"1982-12-31","USW00023155",35.4344,-119.0542,1982,0,0,0,66.25,76.86,55.65,8.03,108,43,81,24,10.96,27.4,14.79,7.4,0.74,1.03,6.73
"1983-12-31","USW00023155",35.4344,-119.0542,1983,0,0,0,64.75,76.37,53.13,10.86,109,39,79,29,9.59,14.79,9.59,6.3,1.01,1.23,9.55
"1984-12-31","USW00023155",35.4344,-119.0542,1984,0,0,0,64.16,77.22,51.11,3.42,108,44,80,31,10.96,16.71,16.99,8.22,0.48,0.77,2.79
"1985-12-31","USW00023155",35.4344,-119.0542,1985,0,0,0,63.27,75.21,51.33,4.26,106,38,79,27,7.4,15.07,20.55,13.7,0.82,0.89,3.51
"1986-12-31","USW00023155",35.4344,-119.0542,1986,0,0,0,64.98,77.61,52.36,5.69,107,44,78,31,8.49,13.42,9.59,3.84,0.62,1.16,4.94
"1987-12-31","USW00023155",35.4344,-119.0542,1987,0,0,0,64.83,78.07,51.6,6.51,108,39,74,21,9.32,9.04,13.42,10.96,1.01,1.48,5.1
"1988-12-31","USW00023155",35.4344,-119.0542,1988,0,0,0,65.47,79.56,51.39,4.52,109,40,82,27,11.78,14.52,10.41,10.68,0.58,1.03,3.78
"1989-12-31","USW00023155",35.4344,-119.0542,1989,0,0,0,64.64,78.72,50.56,2.88,106,38,76,26,7.95,7.67,11.78,16.44,0.66,0.77,2.41
"1990-12-31","USW00023155",35.4344,-119.0542,1990,0,0,0,64.88,78.29,51.47,3.51,110,37,81,19,9.04,12.05,14.25,16.44,0.36,0.5,2.53
"1991-12-31","USW00023155",35.4344,-119.0542,1991,0,0,0,65.23,78.19,52.27,6.5,110,43,80,29,7.4,16.99,10.68,7.95,0.99,2.2,5.77
"1992-12-31","USW00023155",35.4344,-119.0542,1992,0,0,0,66.28,78.64,53.93,8.4,108,40,80,30,9.32,15.07,12.33,6.85,1.38,1.71,7.52
"1993-12-31","USW00023155",35.4344,-119.0542,1993,0,0,0,65.5,78.24,52.76,8.17,110,39,77,29,9.59,12.88,10.96,6.85,0.72,1.43,7.55
"1994-12-31","USW00023155",35.4344,-119.0542,1994,0,0,0,64.75,77.99,51.5,6.69,106,43,75,28,12.6,14.79,14.52,12.6,0.75,1.09,5.58
"1995-12-31","USW00023155",35.4344,-119.0542,1995,0,0,0,65.68,78.43,52.92,9.84,107,49,76,30,8.49,11.78,4.38,1.64,0.85,1.28,8.58
"1996-12-31","USW00023155",35.4344,-119.0542,1996,0,0,0,65.49,78.47,52.51,8.05,110,44,80,30,11.51,12.88,9.86,4.38,0.88,1.26,7.43
"1997-12-31","USW00023155",35.4344,-119.0542,1997,0,0,0,64.91,77.35,52.47,5.86,107,45,79,28,3.84,14.25,12.88,6.03,0.51,0.92,5.25
"1998-12-31","USW00023155",35.4344,-119.0542,1998,0,0,0,62.3,74.27,50.33,13.32,110,34,81,19,7.67,13.97,14.25,7.67,0.97,1.88,11.86
"1999-12-31","USW00023155",35.4344,-119.0542,1999,0,0,0,62.81,75.77,49.86,5.98,105,37,85,23,3.29,8.77,12.05,13.7,1.42,3.05,5.09
"2000-12-31","USW00023155",35.4344,-119.0542,2000,0,0,0,64.4,76.79,52.01,4.96,107,45,80,26,7.12,14.52,11.78,9.86,0.6,0.99,4.35
"2001-12-31","USW00023155",35.4344,-119.0542,2001,0,0,0,65.89,78.14,53.64,7.38,110,46,81,30,9.86,18.08,14.52,7.12,0.72,1.35,6.51
"2002-12-31","USW00023155",35.4344,-119.0542,2002,0,0,0,65.52,77.77,53.26,4.29,109,42,82,26,7.67,20.27,11.51,7.67,0.76,1.29,3.61
"2003-12-31","USW00023155",35.4344,-119.0542,2003,0,0,0,66.78,78.74,54.83,5.12,106,47,86,31,12.6,22.74,8.49,4.66,0.92,1.06,4.22
"2004-12-31","USW00023155",35.4344,-119.0542,2004,0,0,0,65.8,77.68,53.92,5.55,106,42,78,26,7.95,16.99,14.79,5.75,0.96,0.98,4.82
"2005-12-31","USW00023155",35.4344,-119.0542,2005,0,0,0,65.54,77.36,53.72,7.99,107,44,82,33,10.41,16.71,9.59,1.37,0.82,1.47,7
"2006-12-31","USW00023155",35.4344,-119.0542,2006,0,0,0,65.31,77.3,53.32,6.16,112,47,84,29,9.86,20.55,12.05,9.32,0.65,0.99,5.35
"2007-12-31","USW00023155",35.4344,-119.0542,2007,0,0,0,65.34,77.42,53.25,2.98,111,45,80,23,7.67,17.81,13.42,10.68,0.34,0.57,2.26
"2008-12-31","USW00023155",35.4344,-119.0542,2008,0,0,0,66.02,77.7,54.33,3.24,111,44,85,31,6.85,25.21,14.25,4.38,0.46,0.63,2.54
"2009-12-31","USW00023155",35.4344,-119.0542,2009,0,0,0,66.71,78.84,54.58,5.11,111,42,82,30,10.14,24.38,9.59,3.01,0.75,1.22,4.26
"2010-12-31","USW00023155",35.4344,-119.0542,2010,0,0,0,65.05,76.81,53.29,12.5,111,46,81,31,7.4,17.53,9.86,3.01,1.53,4.33,10.92
"2011-12-31","USW00023155",35.4344,-119.0542,2011,0,0,0,64.22,76.81,51.63,4.39,107,42,81,28,8.22,18.36,11.23,10.14,0.89,1.44,3.47
"2012-12-31","USW00023155",35.4344,-119.0542,2012,0,0,0,67.06,79.98,54.14,4.41,110,50,84,28,10.41,21.1,5.48,6.03,0.86,1.34,3.66
"2013-12-31","USW00023155",35.4344,-119.0542,2013,0,0,0,66.52,79.43,53.61,3.43,110,45,83,25,9.59,23.01,9.32,11.51,0.79,0.94,2.93
"2014-12-31","USW00023155",35.4344,-119.0542,2014,0,0,0,69.48,81.76,57.21,4.02,110,44,83,33,11.78,28.49,3.29,1.92,1.12,1.25,3.61
"2015-12-31","USW00023155",35.4344,-119.0542,2015,0,0,0,67.95,80.25,55.65,3.99,109,45,83,28,10.41,28.49,8.49,5.48,0.63,0.68,3.25
"2016-12-31","USW00023155",35.4344,-119.0542,2016,0,0,0,68.18,80.49,55.87,7.13,111,49,81,27,12.6,25.48,7.67,3.29,0.93,1.1,6.36
"2017-12-31","USW00023155",35.4344,-119.0542,2017,0,0,0,68.48,80.75,56.21,5.38,112,46,86,30,18.36,27.12,5.75,5.21,0.63,1.05,4.56
"2018-12-31","USW00023155",35.4344,-119.0542,2018,0,0,0,68.22,80.19,56.26,5.18,108,50,81,31.1,14.52,22.47,7.12,3.29,0.93,1.32,4.57
"2019-12-31","USW00023155",35.4344,-119.0542,2019,0,0,0,66.97,78.91,55.03,9.11,109.9,48.9,80.1,31.1,11.51,21.37,9.32,3.84,0.85,1.86,7.97
"2020-12-31","USW00023155",35.4344,-119.0542,2020,0,0,0,67.43,79.72,55.14,5.35,108,46.9,82.9,29.1,13.42,23.29,8.49,5.48,0.91,2.51,4.89
"2021-12-31","USW00023155",35.4344,-119.0542,2021,0,0,0,67.97,79.9,56.03,5.58,111,41,84.9,34,18.36,25.75,8.22,1.64,0.97,1.27,5.15
